Date String (YYYY-MM-DD hh:mm:ss) UTC,Instrument flags,Ambient pressure (hPa),Sample flow (lpm),Bypass flow (lpm),Sample temperature (°C),Ambient temperature (°C),ASC tube jacket temperature (°C),LED temperature (°C),Box temperature (°C),Sample RH (%),Span deviation,Mass concentration (μg/m³),Mass concentration (μg/m³),Mass concentration (μg/m³)
DateTimeUTC,F1_M11,P_M11,Q1_M11,Q2_M11,T1_M11,T2_M11,T3_M11,T4_M11,T5_M11,U1_M11,ZSPAN_M11,X0_M11,X2_M11,X1_M11
2022-03-18 19:00:00,,0825.4,5.00,0.00,23.3,22.7,00.0,32.2,25.1,13.7,0000.0,0009.98,0004.46,0003.79
2022-03-18 19:01:00,,0825.4,4.99,0.00,23.3,22.7,00.0,32.2,25.1,13.3,0000.0,0010.01,0004.43,0003.74
2022-03-18 19:02:00,,0825.3,5.00,0.00,23.3,22.8,00.0,32.2,25.1,13.3,0000.0,0009.49,0004.36,0003.70
2022-03-18 19:03:00,,0825.3,5.00,0.00,23.3,22.8,00.0,32.2,25.1,12.8,0000.0,0008.97,0004.29,0003.65
2022-03-18 19:04:00,,0825.3,5.00,0.00,23.3,22.8,00.0,32.2,25.1,12.3,0000.0,0008.79,0004.22,0003.59
2022-03-18 19:05:00,,0825.3,5.01,0.00,23.3,22.8,00.0,32.2,25.1,12.2,0000.0,0008.65,0004.17,0003.56
2022-03-18 19:06:00,,0825.3,5.00,0.00,23.4,22.8,00.0,32.2,25.1,12.0,0000.0,0008.75,0004.17,0003.54
2022-03-18 19:07:00,,0825.3,4.99,0.00,23.4,22.8,00.0,32.2,25.2,12.4,0000.0,0008.86,0004.15,0003.52
2022-03-18 19:08:00,,0825.2,4.99,0.00,23.4,22.8,00.0,32.3,25.2,12.3,0000.0,0008.72,0004.14,0003.49
2022-03-18 19:09:00,,0825.3,5.01,0.00,23.4,22.8,00.0,32.3,25.2,13.1,0000.0,0009.08,0004.11,0003.47
2022-03-18 19:10:00,,0825.3,4.99,0.00,23.4,22.8,00.0,32.3,25.2,12.1,0000.0,0008.97,0004.13,0003.46
2022-03-18 19:11:00,,0825.3,5.00,0.00,23.4,22.8,00.0,32.3,25.2,12.1,0000.0,0009.02,0004.16,0003.47
2022-03-18 19:12:00,,0825.2,4.99,0.00,23.4,22.9,00.0,32.3,25.2,11.8,0000.0,0008.92,0004.12,0003.47
2022-03-18 19:13:00,,0825.2,5.01,0.00,23.5,22.9,00.0,32.3,25.3,11.6,0000.0,0008.86,0004.10,0003.49
2022-03-18 19:14:00,,0825.2,5.00,0.00,23.5,22.9,00.0,32.3,25.3,11.5,0000.0,0008.76,0004.06,0003.48
2022-03-18 19:15:00,,0825.2,4.99,0.00,23.5,23.0,00.0,32.3,25.3,11.3,0000.0,0008.95,0004.04,0003.48
2022-03-18 19:16:00,,0825.2,5.01,0.00,23.5,23.0,00.0,32.4,25.4,11.6,0000.0,0008.97,0004.04,0003.48
2022-03-18 19:17:00,,0825.1,5.01,0.00,23.6,23.0,00.0,32.4,25.4,12.5,0000.0,0008.67,0004.03,0003.48
2022-03-18 19:18:00,,0825.2,5.00,0.00,23.6,23.0,00.0,32.4,25.4,12.2,0000.0,0008.51,0004.05,0003.51
2022-03-18 19:19:00,,0825.2,5.00,0.00,23.6,23.0,00.0,32.4,25.4,12.1,0000.0,0008.59,0004.05,0003.53
2022-03-18 19:20:00,,0825.2,5.00,0.00,23.6,23.1,00.0,32.4,25.4,11.7,0000.0,0008.10,0004.04,0003.55
2022-03-18 19:21:00,,0825.1,5.01,0.00,23.6,23.0,00.0,32.4,25.5,11.4,0000.0,0007.91,0004.02,0003.57
2022-03-18 19:22:00,,0825.1,4.99,0.00,23.6,23.1,00.0,32.5,25.4,11.5,0000.0,0008.04,0004.02,0003.60
2022-03-18 19:23:00,,0825.1,5.00,0.00,23.6,23.1,00.0,32.5,25.5,11.7,0000.0,0008.61,0004.05,0003.62
2022-03-18 19:24:00,,0825.1,5.01,0.00,23.6,23.1,00.0,32.5,25.5,11.1,0000.0,0008.65,0004.08,0003.64
2022-03-18 19:25:00,,0825.0,4.98,0.00,23.6,23.1,00.0,32.5,25.4,11.2,0000.0,0008.96,0004.18,0003.68
2022-03-18 19:26:00,,0825.1,5.01,0.00,23.7,23.1,00.0,32.5,25.5,11.8,0000.0,0009.06,0004.27,0003.74
2022-03-18 19:27:00,,0825.0,4.98,0.00,23.7,23.1,00.0,32.5,25.5,12.1,0000.0,0009.26,0004.36,0003.81
2022-03-18 19:28:00,,0825.1,5.01,0.00,23.7,23.1,00.0,32.5,25.5,12.0,0000.0,0009.64,0004.40,0003.85
2022-03-18 19:29:00,,0825.0,4.99,0.00,23.7,23.1,00.0,32.5,25.5,12.2,0000.0,0009.96,0004.44,0003.88
2022-03-18 19:30:00,,0825.0,4.99,0.00,23.7,23.1,00.0,32.6,25.5,12.0,0000.0,0010.77,0004.46,0003.91
2022-03-18 19:31:00,,0825.1,5.00,0.00,23.7,23.1,00.0,32.6,25.5,11.9,0000.0,0010.77,0004.53,0003.95
2022-03-18 19:32:00,,0825.0,5.01,0.00,23.7,23.1,00.0,32.6,25.5,11.6,0000.0,0010.62,0004.55,0004.00
2022-03-18 19:33:00,,0824.9,5.00,0.00,23.7,23.1,00.0,32.6,25.5,11.4,0000.0,0010.48,0004.58,0004.04
2022-03-18 19:34:00,,0824.9,5.00,0.00,23.7,23.1,00.0,32.6,25.5,11.4,0000.0,0009.96,0004.61,0004.08
2022-03-18 19:35:00,,0824.9,5.00,0.00,23.7,23.1,00.0,32.6,25.5,11.5,0000.0,0010.04,0004.66,0004.13
2022-03-18 19:36:00,,0824.9,5.01,0.00,23.8,23.2,00.0,32.6,25.6,11.9,0000.0,0010.03,0004.69,0004.19
2022-03-18 19:37:00,,0824.9,4.99,0.00,23.8,23.2,00.0,32.6,25.6,12.3,0000.0,0009.98,0004.68,0004.22
2022-03-18 19:38:00,,0824.9,5.00,0.00,23.8,23.2,00.0,32.6,25.6,11.9,0000.0,0010.51,0004.71,0004.26
2022-03-18 19:39:00,,0824.9,5.00,0.00,23.8,23.2,00.0,32.7,25.6,11.9,0000.0,0010.28,0004.79,0004.33
2022-03-18 19:40:00,,0824.9,5.00,0.00,23.8,23.3,00.0,32.7,25.6,12.1,0000.0,0010.15,0004.86,0004.39
2022-03-18 19:41:00,,0824.9,4.99,0.00,23.8,23.2,00.0,32.7,25.6,11.6,0000.0,0009.66,0004.95,0004.45
2022-03-18 19:42:00,,0824.9,5.01,0.00,23.8,23.2,00.0,32.7,25.6,11.7,0000.0,0009.80,0005.03,0004.51
2022-03-18 19:43:00,,0824.9,5.01,0.00,23.8,23.2,00.0,32.7,25.6,12.0,0000.0,0010.04,0005.15,0004.58
2022-03-18 19:44:00,,0824.8,5.00,0.00,23.8,23.3,00.0,32.7,25.6,11.6,0000.0,0010.10,0005.23,0004.66
2022-03-18 19:45:00,,0824.8,4.99,0.00,23.9,23.3,00.0,32.7,25.6,11.7,0000.0,0010.61,0005.30,0004.74
2022-03-18 19:46:00,,0824.7,5.00,0.00,23.9,23.3,00.0,32.7,25.6,11.7,0000.0,0011.50,0005.38,0004.80
2022-03-18 19:47:00,,0824.7,5.01,0.00,23.9,23.3,00.0,32.7,25.7,11.9,0000.0,0012.73,0005.44,0004.85
2022-03-18 19:48:00,,0824.7,4.99,0.00,23.9,23.3,00.0,32.8,25.7,12.0,0000.0,0012.68,0005.48,0004.89
2022-03-18 19:49:00,,0824.6,5.00,0.00,23.9,23.3,00.0,32.8,25.7,11.9,0000.0,0011.94,0005.51,0004.92
2022-03-18 19:50:00,,0824.6,5.00,0.00,23.9,23.4,00.0,32.8,25.7,12.8,0000.0,0012.05,0005.53,0004.93
2022-03-18 19:51:00,,0824.7,5.01,0.00,24.0,23.4,00.0,32.8,25.8,12.3,0000.0,0011.97,0005.52,0004.94
2022-03-18 19:52:00,,0824.6,5.00,0.00,24.0,23.4,00.0,32.8,25.9,12.6,0000.0,0011.61,0005.54,0004.96
2022-03-18 19:53:00,,0824.6,5.00,0.00,24.0,23.4,00.0,32.8,25.9,12.0,0000.0,0011.89,0005.56,0005.00
2022-03-18 19:54:00,,0824.6,5.00,0.00,24.0,23.5,00.0,32.8,25.9,11.9,0000.0,0012.28,0005.58,0005.04
2022-03-18 19:55:00,,0824.7,4.99,0.00,24.0,23.5,00.0,32.9,25.9,12.0,0000.0,0012.43,0005.62,0005.06
2022-03-18 19:56:00,,0824.7,5.01,0.00,24.0,23.5,00.0,32.9,25.9,11.9,0000.0,0012.12,0005.68,0005.07
2022-03-18 19:57:00,,0824.6,5.01,0.00,24.0,23.5,00.0,32.9,25.9,12.0,0000.0,0011.58,0005.72,0005.09
2022-03-18 19:58:00,,0824.6,4.99,0.00,24.1,23.5,00.0,32.9,25.9,12.4,0000.0,0010.25,0005.73,0005.12
2022-03-18 19:59:00,,0824.6,5.01,0.00,24.1,23.5,00.0,32.9,26.0,12.2,0000.0,0010.30,0005.75,0005.14
